Tracking 30995 objects as of 7-Jul-2025
HD Live streaming from Space Station
objects crossing your sky now

STARLINK-5091

Track STARLINK-5091 now!
10-day predictions
STARLINK-5091 is classified as:


NORAD ID: 54873
Int'l Code: 2022-177BF
Perigee: 565.5 km
Apogee: 566.8 km
Inclination: 43.0 °
Period: 95.8 minutes
Semi major axis: 6937 km
RCS: Unknown
Launch date: December 28, 2022
Source: United States (US)
Launch site: AIR FORCE EASTERN TEST RANGE (AFETR)
Your satellite tracking list
Your tracking list is empty




NASA's NSSDC Master Catalog

Two Line Element Set (TLE):
1 54873U 22177BF  25187.54558795 -.00004017  00000-0 -28232-3 0  9991
2 54873  43.0046  17.3850 0000983 278.0785  81.9946 15.02555277140086
Source of the keplerian elements: AFSPC